Location: Breezy Point Observatory
(38.9725°N, 81.7133°W)
Time: 07:22:10
(UTC-04:00)

HST - Visible Passes

Search period start: 20 October 2014 00:00
Search period end: 30 October 2014 00:00
Orbit: 546 x 551 km, 28.5° (Epoch: 19 October)

Date Brightness Start Highest point End Pass type
(mag) Time Alt. Az. Time Alt. Az. Time Alt. Az.
25 Oct 3.4 20:50:05 10° SSW 20:50:41 12° SSW 20:50:41 12° SSW visible
26 Oct 3.1 20:42:27 10° SW 20:43:51 15° SSW 20:43:51 15° SSW visible
27 Oct 3.2 18:56:00 10° S 18:57:08 11° SSE 18:58:16 10° SSE visible
27 Oct 2.9 20:34:53 10° SW 20:36:59 18° S 20:36:59 18° S visible
28 Oct 2.8 20:27:24 10° SW 20:30:06 19° S 20:30:06 19° S visible
29 Oct 2.7 20:19:57 10° SW 20:22:59 19° S 20:23:11 19° S visible
